Location: Madrid
(40.4167°N, 3.7036°W)
Time: 13:13:38
(UTC+00:00)

ISS - Pass Details

Date: 11 July 2024
Orbit: 410 x 424 km, 51.6° (Epoch: 14 July)

Event Time Altitude Azimuth Distance (km) Brightness Sun altitude
Rises 01:49:12 0° 312° (NW) 2,347 0.3 -24.2°
Reaches altitude 10° 01:51:36 10° 328° (NNW) 1,485 -0.6 -24.0°
Maximum altitude 01:54:17 22° 22° (NNE) 955 -1.2 -23.8°
Drops below altitude 10° 01:56:59 10° 76° (ENE) 1,487 -0.5 -23.6°
Sets 01:59:23 0° 92° (E) 2,350 0.3 -23.4°
